• Join FlightAware (Why Join?)
  • Login
  • US Flag 
12:57PM EST


 

Airport Tracker/Info


-or-


 

Live Flight TrackerFlight Track Log ✈ DAL3974 ✈ 22-Apr-2013 ✈ KDTW - KMHT

Flight Track Log - Related Links

Times and Time Zones

All times are in EDT time to prevent confusion due to time zone crossing. See the DAL3974 flight status page for this flight to view local times or setup timezone preferences in your user account.

Time Position Orientation Groundspeed Altitude Reporting Facility
EDT Latitude Longitude Course Direction KTS MPH feet Rate Location/Type
07:54PM 42.2017 -83.3553 94° East 151 174 1,300  Level Cleveland Center
07:54PM 42.1947 -83.3553 180° South 148 170 1,800 1,543 Climbing FAA TRACON SMA TRACON (SMA)
07:54PM 42.1836 -83.3572 187° South 171 197 2,200 1,500 Climbing FAA TRACON SMA TRACON (SMA)
07:54PM 42.1617 -83.3586 183° South 197 227 2,800 2,488 Climbing FAA TRACON SMA TRACON (SMA)
07:55PM 42.1433 -83.3592 181° South 190 219 3,900 2,700 Climbing FAA TRACON SMA TRACON (SMA)
07:55PM 42.1292 -83.3583 178° South 192 221 4,600 1,846 Climbing FAA TRACON SMA TRACON (SMA)
07:55PM 42.1047 -83.3572 178° South 237 273 5,100 1,692 Climbing FAA TRACON SMA TRACON (SMA)
07:56PM 42.0900 -83.3444 147° Southeast 249 287 5,700 2,341 Climbing FAA TRACON SMA TRACON (SMA)
07:56PM 42.0817 -83.3094 108° East 274 315 6,700 2,780 Climbing FAA TRACON SMA TRACON (SMA)
07:56PM 42.0844 -83.2783 83° East 274 315 7,600 2,769 Climbing FAA TRACON SMA TRACON (SMA)
07:57PM 42.3104 -82.7496 78° East  Level FlightAware Approximate
07:57PM 42.0886 -83.2386 82° East 283 326 8,500  Level FAA TRACON SMA TRACON (SMA)
07:57PM 42.0969 -83.2075 70° East 295 339 9,300 2,550 Climbing FAA TRACON SMA TRACON (SMA)
07:57PM 42.1083 -83.1775 63° Northeast 293 337 10,200 2,634 Climbing FAA TRACON SMA TRACON (SMA)
07:58PM 42.3333 -82.5963 90° East  Level FlightAware Approximate
07:58PM 42.1225 -83.1400 63° Northeast 294 338 11,100  Level FAA TRACON SMA TRACON (SMA)
07:58PM 42.1344 -83.1078 63° Northeast 316 364 11,400 600 Climbing FAA TRACON SMA TRACON (SMA)
07:58PM 42.1472 -83.0731 64° Northeast 351 404 11,500 615 Climbing FAA TRACON SMA TRACON (SMA)
07:59PM 42.3666 -82.4492 94° East  Level FlightAware Approximate
07:59PM 42.1639 -83.0264 64° Northeast 361 415 11,800  Level FAA TRACON SMA TRACON (SMA)
07:59PM 42.1775 -82.9883 64° Northeast 369 425 12,300 1,463 Climbing FAA TRACON SMA TRACON (SMA)
07:59PM 42.1917 -82.9494 64° Northeast 374 430 12,800 1,650 Climbing FAA TRACON SMA TRACON (SMA)
08:00PM 42.2094 -82.9000 64° Northeast 379 436 13,400 1,500 Climbing FAA TRACON SMA TRACON (SMA)
08:00PM 42.2236 -82.8597 65° Northeast 383 441 13,800 1,463 Climbing FAA TRACON SMA TRACON (SMA)
08:00PM 42.2419 -82.8092 64° Northeast 390 449 14,400 1,650 Climbing FAA TRACON SMA TRACON (SMA)
08:01PM 42.2569 -82.7686 63° Northeast 392 451 14,900 1,421 Climbing FAA TRACON SMA TRACON (SMA)
08:01PM 42.2719 -82.7272 64° Northeast 395 455 15,300 1,317 Climbing FAA TRACON SMA TRACON (SMA)
08:01PM 42.2867 -82.6858 64° Northeast 397 457 15,800 1,571 Climbing FAA TRACON SMA TRACON (SMA)
08:02PM 42.3053 -82.6342 64° Northeast 398 458 16,400 1,500 Climbing FAA TRACON SMA TRACON (SMA)
08:02PM 42.3194 -82.5928 65° Northeast 397 457 16,800 1,500 Climbing FAA TRACON SMA TRACON (SMA)
08:02PM 42.3378 -82.5411 64° Northeast 397 457 17,400 1,650 Climbing FAA TRACON SMA TRACON (SMA)
08:03PM 42.3528 -82.4997 64° Northeast 397 457 17,900 1,050 Climbing FAA TRACON SMA TRACON (SMA)
08:03PM 42.3639 -82.4567 71° East 397 457 18,100 1,200 Climbing FAA TRACON SMA TRACON (SMA)
08:03PM 42.3667 -82.4003 86° East 391 450 18,700 1,500 Climbing FAA TRACON SMA TRACON (SMA)
08:04PM 42.3653 -82.3553 92° East 390 449 19,100 1,350 Climbing FAA TRACON SMA TRACON (SMA)
08:04PM 42.3633 -82.3103 93° East 390 449 19,600 1,395 Climbing FAA TRACON SMA TRACON (SMA)
08:05PM 42.3608 -82.2542 93° East 390 449 20,100 1,429 Climbing FAA TRACON SMA TRACON (SMA)
08:05PM 42.3589 -82.2092 93° East 390 449 20,600 1,167 Climbing FAA TRACON SMA TRACON (SMA)
08:05PM 42.3578 -82.1864 94° East 390 449 20,800 324 Climbing FAA TRACON SMA TRACON (SMA)
08:05PM 42.3578 -82.1864 160° South 390 449 20,800 1,404 Level FAA TRACON SMA TRACON (SMA)
08:06PM 42.3508 -82.0469 94° East 388 447 21,900 1,517 Climbing Cleveland Center
08:07PM 42.3442 -81.8978 93° East 388 447 23,000 1,050 Climbing Cleveland Center
08:08PM 42.3375 -81.7517 93° East 396 456 24,000 1,000 Climbing Cleveland Center
08:09PM 42.3306 -81.5969 93° East 406 467 25,000 1,000 Climbing Cleveland Center
08:10PM 42.3236 -81.4453 93° East 406 467 26,000 1,000 Climbing Cleveland Center
08:11PM 42.3142 -81.2908 95° East 411 473 27,000 950 Climbing Cleveland Center
08:12PM 42.3086 -81.1558 93° East 405 466 27,900 850 Climbing Cleveland Center
08:13PM 42.3011 -81.0042 94° East 405 466 28,700 650 Climbing Cleveland Center
08:14PM 42.2931 -80.8525 94° East 405 466 29,200 500 Climbing Cleveland Center
08:15PM 42.2850 -80.6925 94° East 410 472 29,700 500 Climbing Cleveland Center
08:16PM 42.2767 -80.5383 94° East 410 472 30,200 500 Climbing Cleveland Center
08:17PM 42.2661 -80.3644 95° East 415 478 30,700 400 Climbing Cleveland Center
08:18PM 42.2575 -80.2072 94° East 421 484 31,000 150 Climbing Cleveland Center
08:19PM 42.2464 -80.0447 95° East 426 490 31,000  Level Cleveland Center
08:20PM 42.2394 -79.8961 94° East 426 490 31,000  Level Cleveland Center
08:21PM 42.2300 -79.7336 94° East 426 490 31,000  Level Cleveland Center
08:22PM 42.2161 -79.5628 96° East 438 504 31,000  Level Cleveland Center
08:23PM 42.2081 -79.3919 94° East 448 516 31,000  Level Cleveland Center
08:24PM 42.1936 -79.2211 96° East 454 522 31,000  Level Cleveland Center
08:25PM 42.1958 -79.0500 89° East 454 522 31,000  Level Cleveland Center
08:26PM 42.2206 -78.8783 79° East 459 528 31,000  Level Cleveland Center
08:27PM 42.2428 -78.7094 80° East 459 528 31,000  Level Cleveland Center
08:28PM 42.2628 -78.5322 81° East 465 535 31,000  Level Cleveland Center
08:29PM 42.2864 -78.3461 80° East 466 536 31,000  Level Cleveland Center
08:30PM 42.3078 -78.1714 81° East 466 536 31,000  Level Cleveland Center
08:31PM 42.3272 -78.0050 81° East 461 531 31,000  Level Cleveland Center
08:32PM 42.3481 -77.8297 81° East 461 531 31,000  Level Cleveland Center
08:34PM 42.3883 -77.4814 81° East 454 522 31,000  Level Boston Center
08:35PM 42.4056 -77.3281 81° East 459 528 31,000  Level Boston Center
08:36PM 42.4256 -77.1550 81° East 464 534 31,000  Level Boston Center
08:37PM 42.4450 -76.9792 81° East 464 534 31,000  Level Boston Center
08:38PM 42.4644 -76.8061 81° East 464 534 31,000 -400 Level Boston Center
08:39PM 42.4814 -76.6297 83° East 464 534 30,200 -900 Descending Boston Center
08:40PM 42.5028 -76.4481 81° East 469 540 29,200 -600 Descending Boston Center
08:41PM 42.5214 -76.2661 82° East 481 554 29,000 -100 Descending Boston Center
08:42PM 42.5400 -76.0839 82° East 481 554 29,000  Level Boston Center
08:43PM 42.5561 -75.9044 83° East 481 554 29,000  Level Boston Center
08:44PM 42.5739 -75.7278 82° East 481 554 29,000  Level Boston Center
08:46PM 42.6086 -75.3683 82° East 475 547 29,000  Level Boston Center
08:47PM 42.6256 -75.1942 82° East 480 552 29,000  Level Boston Center
08:48PM 42.6422 -75.0144 83° East 480 552 29,000  Level Boston Center
08:49PM 42.6586 -74.8372 83° East 480 552 29,000  Level Boston Center
08:50PM 42.6728 -74.6569 84° East 480 552 29,000  Level Boston Center
08:51PM 42.6886 -74.4794 83° East 480 552 29,000 -400 Level Boston Center
08:52PM 42.7042 -74.2992 83° East 480 552 28,200 -900 Descending Boston Center
08:53PM 42.7214 -74.1189 83° East 480 552 27,200 -1,000 Descending Boston Center
08:54PM 42.7322 -73.9439 85° East 480 552 26,200 -1,000 Descending Boston Center
08:55PM 42.7469 -73.7744 83° East 468 539 25,200 -1,100 Descending Boston Center
08:56PM 42.7550 -73.5994 86° East 444 511 24,000 -1,250 Descending Boston Center
08:57PM 42.7608 -73.4328 87° East 439 505 22,700 -1,400 Descending Boston Center
08:58PM 42.7664 -73.2717 87° East 434 499 21,200 -850 Descending Boston Center
08:59PM 42.7714 -73.1303 87° East 423 487 21,000 -100 Descending Boston Center
09:00PM 42.7764 -72.9719 87° East 412 474 21,000 -200 Level Boston Center
09:01PM 42.7792 -72.8164 89° East 412 474 20,600 -1,250 Descending Boston Center
09:02PM 42.7858 -72.6692 86° East 405 466 18,500 -1,850 Descending Boston Center
09:03PM 42.7900 -72.5278 88° East 387 445 16,900 -1,950 Descending Boston Center
09:04PM 42.7922 -72.3919 89° East 374 430 14,600 -2,200 Descending Boston Center
09:05PM 42.8003 -72.2589 85° East 345 397 12,500 -1,800 Descending Boston Center
09:06PM 42.8169 -72.1628 77° East 297 342 11,000 -1,650 Descending Boston Center
09:07PM 42.8353 -72.0494 78° East 279 321 9,200 -1,600 Descending Boston Center
09:08PM 42.8494 -71.9586 78° East 274 315 7,800 -1,650 Descending Boston Center
09:09PM 42.8658 -71.8594 77° East 257 296 5,900 -1,650 Descending Boston Center
09:10PM 42.8486 -71.7917 109° East 207 238 4,500 -1,400 Descending Boston Center
09:11PM 42.8211 -71.7183 117° Southeast 191 220 3,100 -700 Descending Boston Center
09:12PM 42.8228 -71.6589 88° East 184 212 3,100  Level Boston Center